Location: Eaton Estates
(41.3089°N, 82.0057°W)
Time: 15:31:11
(UTC+00:00)

N. Korean satellite - Visible Passes

Search period start: 08 December 2022 00:00
Search period end: 18 December 2022 00:00
Orbit: 420 x 452 km, 97.3° (Epoch: 08 December)

Date Brightness Start Highest point End Pass type
(mag) Time Alt. Az. Time Alt. Az. Time Alt. Az.
08 Dec 8.5 10:13:54 10° NE 10:16:49 27° E 10:19:41 10° SSE visible
08 Dec 8.0 11:46:58 10° NNW 11:49:05 16° WNW 11:51:10 10° WSW visible
09 Dec 6.5 11:06:58 10° N 11:10:14 49° WNW 11:13:27 10° SSW visible
09 Dec 10.3 23:11:25 10° W 23:11:48 10° W 23:12:11 10° W visible
10 Dec 7.6 10:27:54 10° NNE 10:31:07 41° E 10:34:17 10° S visible
10 Dec 8.4 12:02:24 10° NW 12:03:11 11° WNW 12:03:57 10° WNW visible
10 Dec 8.6 22:29:20 10° SSW 22:32:23 32° W 22:35:30 10° NNW visible
11 Dec 9.7 09:50:09 10° ENE 09:51:44 13° E 09:53:18 10° ESE visible
11 Dec 7.1 11:21:19 10° N 11:24:19 31° WNW 11:27:18 10° SW visible
12 Dec 6.6 10:41:51 10° NNE 10:45:12 68° E 10:48:29 10° S visible
12 Dec 9.4 22:43:48 10° SSW 22:46:28 21° W 22:49:09 10° NW visible
13 Dec 9.1 10:03:22 10° NE 10:05:47 19° E 10:08:13 10° SE visible
13 Dec 7.6 11:36:51 17° NW 11:38:11 21° WNW 11:40:44 10° WSW visible
14 Dec 6.1 10:58:17 49° N 10:59:02 74° WNW 11:02:18 10° SSW visible
14 Dec 9.7 22:58:26 10° SW 23:00:21 14° W 23:02:18 10° WNW visible
15 Dec 8.4 10:19:09 27° E 10:19:36 28° E 10:22:29 10° SSE visible
15 Dec 8.2 11:52:33 14° W 11:52:33 14° W 11:53:40 10° WSW visible
16 Dec 6.8 11:13:13 40° WSW 11:13:13 40° WSW 11:15:47 10° SSW visible
17 Dec 7.6 10:33:45 39° SE 10:33:45 39° SE 10:36:19 10° S visible
17 Dec 8.6 22:31:17 10° SSW 22:34:19 30° W 22:37:22 10° NNW visible
